Theta_e
321 322 322 324 328 328 328 329 329 329 329 329 328 327 328 326 325 315 311 320 320 327 322 307 307 306 306 304 306 302 296 291 293 293 294 297 297 297 298 304 300 305 311 314 324
321 321 322 323 327 327 327 328 328 328 329 329 329 328 326 324 312 308 319 327 330 328 314 305 303 304 302 302 303 299 294 294 297 297 294 296 297 297 298 298 302 307 314 320 327
320 321 322 322 322 326 326 327 327 327 328 328 328 327 325 315 305 305 323 324 331 324 315 309 309 304 300 301 300 298 294 297 297 297 298 296 295 297 297 295 302 307 312 319 324
320 320 321 321 321 321 326 325 326 327 328 327 327 325 322 306 298 305 323 327 329 315 307 307 302 301 298 297 300 295 298 299 299 298 297 296 297 295 297 298 300 309 316 320 322
318 319 319 321 321 321 325 326 326 327 327 326 325 322 310 298 299 307 325 326 320 309 307 302 300 298 298 298 299 297 298 298 298 297 297 297 296 295 295 295 301 315 317 318 321
316 318 319 320 321 319 325 325 326 326 326 325 324 318 303 296 308 308 318 319 313 305 306 303 300 300 297 296 300 299 299 296 296 295 296 295 293 295 296 301 312 315 315 316 319
315 317 318 319 320 318 323 323 325 325 325 325 323 310 302 302 306 312 316 313 309 306 305 311 308 303 301 297 300 297 296 296 294 295 295 296 291 293 294 300 311 313 314 315 317
315 315 317 318 319 318 322 323 324 325 324 324 321 307 299 307 311 312 311 309 308 305 305 308 309 305 304 301 299 294 293 290 291 294 294 295 289 296 295 299 307 310 311 313 315
313 313 316 317 317 319 322 323 323 325 324 323 312 305 298 311 305 309 308 306 306 304 306 306 305 297 297 295 292 292 286 285 289 293 292 292 290 295 293 297 299 307 309 312 313
313 313 313 316 317 320 321 322 323 323 321 316 311 300 298 297 304 306 305 307 302 303 301 300 296 292 289 293 286 288 286 286 287 291 289 289 291 294 292 294 297 300 306 309 311
312 313 313 316 316 321 320 316 311 309 309 302 300 296 297 301 305 302 304 301 299 298 293 297 291 290 290 291 289 294 291 286 287 291 290 289 291 295 292 290 290 293 297 302 305
311 312 314 316 315 320 318 310 311 309 296 301 303 298 299 302 297 299 303 296 294 289 294 293 288 291 292 292 291 288 287 291 290 291 289 286 288 292 290 291 291 292 292 296 298
311 312 313 316 316 317 313 312 313 309 295 296 302 297 297 300 296 296 301 293 289 288 290 289 289 293 294 290 288 286 284 284 287 289 289 286 286 289 289 290 291 291 292 292 294
311 313 314 315 313 314 311 311 312 307 289 289 296 298 297 297 293 299 300 295 290 287 289 288 291 292 291 290 291 287 290 289 287 287 284 284 281 286 288 288 290 292 291 292 293
310 312 314 315 312 309 312 313 310 304 278 291 294 301 297 295 294 294 297 295 288 288 290 287 288 289 288 290 291 287 291 289 287 285 283 281 278 283 284 286 286 290 292 293 295
310 314 313 314 314 314 313 311 304 287 277 287 293 291 291 290 290 293 294 294 293 290 289 289 289 293 292 292 292 292 289 289 286 284 279 285 280 280 284 287 288 289 293 295 296
311 314 312 315 308 312 312 302 286 282 288 283 286 290 289 286 287 290 290 286 285 282 282 285 285 287 290 287 288 290 288 279 279 278 277 277 278 286 287 286 288 290 290 290 289
313 313 313 315 313 312 305 293 282 283 284 287 288 289 285 286 284 286 288 286 286 284 283 282 279 285 287 287 284 289 288 279 272 272 276 279 277 283 288 290 288 289 289 290 290
314 311 310 309 312 309 298 285 283 284 286 286 287 284 281 286 285 285 287 287 287 285 282 281 280 285 286 287 290 285 284 288 279 270 273 277 280 286 287 288 288 290 290 291 291
308 308 305 309 311 304 292 287 282 287 289 289 282 283 280 284 282 282 284 289 287 287 285 284 280 284 285 287 285 287 289 281 280 270 270 276 277 281 282 288 290 288 291 291 291
308 299 304 309 308 297 287 285 284 289 292 286 282 281 283 283 282 281 283 285 290 286 286 284 283 281 284 283 282 283 283 282 284 279 274 271 277 283 287 287 287 289 291 292 292
304 291 304 308 293 293 290 287 291 288 288 287 286 285 285 286 281 283 282 287 290 287 284 286 283 278 280 284 285 283 284 285 281 278 277 278 280 284 286 286 288 289 291 291 292
298 295 305 304 285 287 290 288 289 287 287 286 285 287 287 285 281 282 284 289 290 290 286 287 279 272 279 282 284 282 282 284 283 281 279 276 282 285 286 288 288 289 289 292 293
296 288 295 298 294 291 287 285 285 290 288 288 286 288 286 285 285 282 283 288 289 290 294 292 282 280 278 280 283 282 283 284 284 279 280 279 282 285 284 286 289 290 289 292 293
294 291 294 288 289 291 290 286 285 285 288 289 285 288 285 281 282 282 285 287 287 293 291 289 280 280 281 282 284 283 284 284 283 286 281 285 281 285 286 287 290 290 290 291 292
290 293 295 293 292 290 290 286 285 286 288 286 285 287 286 283 285 282 286 285 285 286 287 286 276 280 276 282 282 281 283 285 286 286 285 281 282 285 286 289 289 292 291 291 292
291 293 296 294 289 289 287 287 287 289 289 289 288 286 285 286 288 290 291 291 290 288 285 284 279 276 272 280 281 277 282 283 284 285 284 281 287 286 286 288 290 291 292 292 293
Wind_Speed
23 23 16 20 26 25 23 22 23 16 19 20 19 16 13 8 6 3 10 6 5 5 2 4 1 2 1 3 3 3 3 3 6 5 4 3 4 1 1 6 0 1 5 2 16
23 22 24 21 24 26 24 22 23 21 18 21 23 19 15 11 4 6 6 10 12 8 2 3 4 1 2 2 2 4 3 7 6 5 3 4 3 8 5 3 2 1 4 8 17
22 21 26 23 24 23 25 23 22 24 22 20 18 19 18 9 3 10 19 14 12 8 4 3 3 2 5 3 1 3 4 5 3 3 4 3 3 6 7 3 8 10 8 11 15
25 24 24 22 22 20 26 24 23 24 25 20 20 22 18 4 9 2 13 18 12 7 7 7 5 4 4 6 5 4 7 5 3 2 4 4 4 6 7 7 5 10 15 14 16
18 22 20 24 24 19 29 27 25 25 24 22 22 23 8 3 9 3 11 11 8 8 7 7 6 6 7 5 5 3 2 3 3 1 4 5 7 4 8 0 2 10 13 14 15
11 14 20 23 23 16 32 27 26 26 25 24 24 20 7 7 5 2 10 8 6 5 5 6 8 4 5 4 6 1 3 3 3 2 2 4 2 5 5 5 6 11 15 12 15
13 11 16 22 24 18 30 28 28 27 26 26 25 9 4 15 1 5 8 4 6 5 5 1 4 4 4 6 1 2 2 8 4 2 4 4 3 9 4 6 9 9 10 9 11
16 12 14 17 23 22 31 29 30 27 26 27 25 2 5 1 6 7 7 5 5 4 5 5 2 5 2 3 4 6 6 3 2 3 2 6 8 10 7 9 9 9 8 8 8
16 11 16 20 19 24 28 27 30 29 27 26 11 5 5 7 5 4 5 10 6 3 3 3 4 4 2 6 3 5 5 4 4 2 0 3 5 6 6 8 8 9 8 8 8
17 13 16 18 18 27 30 29 30 30 23 14 3 5 5 9 6 7 3 9 5 7 6 5 3 4 2 5 13 7 5 4 5 3 1 4 7 7 4 7 11 9 8 9 9
17 16 17 19 18 30 28 21 18 15 19 9 17 2 10 7 6 4 7 7 5 4 6 3 5 15 7 3 3 5 4 5 3 2 3 6 8 13 4 4 7 8 9 9 11
19 20 19 22 20 35 26 25 27 13 14 4 17 3 4 10 9 5 9 8 7 7 7 5 11 4 8 8 4 3 4 5 4 3 1 2 10 12 6 6 9 11 8 12 7
22 22 21 27 28 29 29 24 19 16 8 3 12 4 6 7 7 12 12 4 6 7 7 9 4 8 7 5 9 3 4 4 2 2 1 5 7 9 4 5 6 8 9 6 11
24 23 27 24 23 24 22 22 26 9 6 8 12 6 6 9 6 3 6 7 3 6 6 5 3 9 5 5 5 5 5 3 5 4 4 1 10 9 6 10 8 12 9 11 12
24 25 26 33 21 25 17 24 22 8 9 12 8 5 6 12 17 3 1 5 8 6 8 7 8 5 8 6 6 4 4 3 4 4 4 4 4 6 2 10 8 11 12 13 16
24 25 24 24 13 26 21 25 7 7 7 12 7 9 14 4 3 6 6 5 5 5 5 7 2 9 10 7 12 9 5 6 5 4 5 17 6 6 9 10 7 8 13 15 15
26 32 26 22 17 22 22 17 9 10 12 10 10 14 16 6 6 10 12 6 9 9 8 3 4 4 6 6 4 8 12 2 2 5 10 3 7 19 7 8 7 10 8 8 9
25 30 26 13 20 24 17 15 11 8 12 4 10 17 9 9 5 6 12 13 7 5 8 11 8 9 5 7 7 15 14 7 8 6 3 4 10 10 11 7 8 8 8 5 7
31 17 20 12 25 17 20 16 12 19 11 14 14 17 5 8 10 8 16 20 12 9 7 7 4 2 3 5 10 7 18 8 5 3 3 7 8 11 9 10 8 11 7 9 6
16 19 13 27 25 19 16 9 6 10 14 22 12 8 14 22 8 10 18 16 11 8 2 7 5 1 3 4 1 11 11 6 1 3 5 5 5 8 1 10 12 9 14 7 4
16 9 13 26 16 17 19 4 6 6 21 10 7 9 12 18 8 11 15 2 12 8 4 5 5 0 4 7 8 5 8 3 3 5 6 1 8 9 12 4 7 8 6 8 8
10 6 17 22 14 11 17 11 7 9 1 7 8 6 18 21 8 14 16 14 14 12 10 6 7 4 6 2 2 2 8 12 9 13 2 3 10 3 7 3 3 7 6 3 5
8 8 12 24 12 12 10 4 5 9 6 6 6 5 7 14 8 5 10 12 16 19 17 9 1 4 5 4 2 4 3 4 3 3 9 6 13 2 3 4 3 4 4 4 5
4 10 9 11 3 23 25 8 7 2 4 6 8 10 12 10 2 10 8 6 13 10 9 11 4 9 12 6 10 7 8 7 6 3 5 11 11 6 4 3 5 4 3 5 7
2 8 9 16 11 24 18 7 10 10 1 6 4 16 14 7 5 5 6 4 2 8 6 8 9 5 3 3 4 7 13 12 11 23 12 24 10 10 8 6 6 4 4 5 6
3 12 8 18 17 29 23 20 12 6 8 6 13 18 8 11 11 9 10 5 8 1 8 1 3 4 3 3 4 3 8 16 24 19 18 3 9 4 3 4 4 6 6 7 8
2 3 12 25 21 23 28 31 15 15 6 4 18 10 7 8 7 8 4 9 12 15 8 7 6 4 5 2 4 5 14 15 12 11 9 15 11 4 4 6 7 8 10 10 12
Wind_Direction
225 224 208 228 221 205 194 192 179 178 192 182 186 182 162 146 120 138 229 217 184 253 23 339 20 345 39 94 108 144 87 188 195 158 234 135 158 116 97 117 256 292 154 245 133
228 225 222 224 222 212 195 192 189 174 206 194 185 162 140 136 97 240 227 207 202 176 141 145 186 93 61 74 42 93 134 213 207 187 192 187 169 164 141 131 231 293 27 127 143
229 224 226 222 233 220 198 191 188 176 198 178 154 143 143 137 79 239 201 221 201 167 154 171 132 45 35 74 56 114 216 203 247 200 149 188 209 171 126 221 211 192 162 165 160
226 226 225 211 218 234 203 193 186 179 176 163 158 143 148 128 195 281 198 189 184 165 154 154 114 109 152 176 160 170 230 211 174 193 119 191 141 188 185 219 212 189 163 160 172
237 226 218 219 206 235 215 189 185 178 166 159 157 141 130 147 249 290 162 157 140 160 175 151 140 142 174 185 134 186 259 223 229 193 261 145 206 207 221 295 65 133 153 181 180
253 242 222 221 214 244 204 186 183 176 161 160 157 141 115 194 217 126 141 137 144 128 149 139 171 180 126 181 173 230 227 296 283 234 197 208 189 146 228 125 133 157 176 181 187
250 252 228 224 224 252 203 182 182 171 157 160 155 147 143 204 69 123 126 138 132 119 137 203 119 138 142 119 249 66 61 316 259 217 225 171 253 209 156 142 164 190 190 187 193
238 263 242 230 215 250 195 182 176 161 161 154 156 146 199 154 112 118 111 84 109 113 125 182 125 96 127 93 34 151 115 226 299 171 263 128 278 264 158 147 195 202 198 207 212
238 255 264 224 222 232 184 174 170 155 157 146 155 149 205 118 122 163 117 144 131 101 121 117 124 135 63 109 100 350 152 173 295 173 186 137 254 284 172 165 206 214 205 207 228
246 251 275 239 219 207 176 168 159 149 145 139 97 140 209 184 133 132 109 125 134 137 99 153 130 139 134 156 200 169 153 176 205 195 184 196 255 275 274 190 207 206 220 221 220
264 252 274 239 246 188 164 149 167 171 155 142 164 158 129 142 108 131 154 115 110 93 149 185 159 207 184 169 42 160 163 169 196 181 206 229 226 243 247 248 256 226 219 225 227
258 248 256 221 246 169 166 177 176 125 118 19 163 60 146 138 109 153 145 132 143 150 133 115 222 203 137 138 134 147 192 225 302 36 180 299 255 255 188 234 216 222 229 227 227
259 241 247 210 226 170 179 172 138 124 94 355 160 152 168 118 128 170 154 115 109 132 151 161 220 154 159 152 148 173 146 149 204 121 338 334 271 264 238 224 235 234 221 221 218
245 239 225 206 196 171 180 146 150 124 107 168 171 227 139 137 81 143 164 130 147 147 113 159 153 153 144 187 153 186 185 127 96 73 212 238 268 246 242 242 225 240 218 229 224
253 248 202 210 168 178 150 151 148 74 184 150 177 153 150 151 133 238 86 65 154 161 149 191 145 141 202 153 139 165 140 85 82 107 22 237 274 260 210 243 234 241 234 231 231
262 223 195 194 177 169 155 148 108 148 163 176 163 169 132 100 74 107 133 62 139 110 49 183 165 176 183 179 171 148 89 58 48 54 256 236 209 242 211 228 244 229 238 234 232
268 192 187 167 172 153 158 147 142 199 150 152 175 161 141 127 104 147 168 169 160 133 182 140 175 182 151 127 140 152 127 105 201 207 237 100 172 244 253 245 231 232 253 271 260
219 178 191 186 141 156 155 156 176 144 175 163 136 136 140 130 32 124 147 188 234 126 133 172 204 166 190 164 168 183 172 168 178 204 215 130 231 249 223 262 237 241 255 256 262
183 185 182 175 143 158 155 177 175 161 158 129 114 140 130 168 129 136 192 197 185 180 143 142 243 29 149 138 139 161 215 177 104 20 49 203 283 304 232 255 246 251 248 246 232
174 175 172 158 149 156 163 172 122 145 124 144 144 165 160 172 126 169 175 197 194 178 148 191 142 320 144 117 215 186 164 175 146 165 244 265 280 232 288 227 230 230 226 231 196
169 153 154 148 147 160 175 150 107 139 133 140 132 134 159 169 135 178 184 252 171 163 92 137 103 277 147 211 153 135 194 209 164 165 183 253 256 220 217 230 288 287 253 222 195
169 139 164 143 161 185 182 127 108 147 84 106 98 102 162 166 128 181 191 194 174 143 159 188 120 162 195 225 161 187 184 189 200 217 227 179 261 192 238 272 305 301 279 212 172
148 113 167 152 161 165 139 87 101 152 146 137 118 129 137 156 152 172 187 196 166 169 165 177 242 82 13 356 28 199 171 215 116 64 216 150 261 318 326 348 297 285 265 197 160
163 135 159 171 107 169 161 144 121 85 117 94 114 105 114 156 333 173 154 182 188 182 164 137 143 165 191 215 133 187 174 163 154 176 231 237 262 303 308 296 298 280 227 175 186
222 148 151 164 166 174 164 117 128 153 181 139 74 157 144 127 114 150 134 102 103 164 162 160 195 152 156 144 170 187 186 173 193 222 188 250 228 222 248 204 236 236 136 168 203
151 149 162 176 148 163 172 186 162 137 145 180 141 158 137 144 181 161 127 154 167 137 173 348 230 108 345 355 185 218 209 195 208 221 235 349 267 220 209 211 215 229 180 203 217
12 332 149 159 162 169 188 173 172 134 4 112 139 129 113 171 130 154 148 132 157 160 153 133 121 94 243 313 120 320 221 203 221 219 212 233 234 183 219 231 220 221 215 206 209